Theta_e
319 320 320 321 321 322 322 322 322 322 322 322 322 323 323 324 323 315 307 316 321 328 327 319 315 314 315 310 311 311 300 296 298 299 305 314 311 318 324 322 324 325 325 328 330
319 319 320 320 321 321 321 322 322 322 322 322 322 322 324 324 316 308 317 323 326 327 317 313 308 311 308 306 306 303 297 298 303 305 308 312 314 316 318 319 319 321 326 329 327
318 319 319 320 320 321 321 321 322 322 322 322 322 323 324 321 310 306 322 323 323 326 318 315 313 310 304 305 303 302 297 301 304 309 311 311 314 317 313 315 319 319 322 323 324
318 319 319 319 320 320 320 321 321 321 322 321 321 323 322 316 295 310 321 321 322 323 317 314 310 305 301 298 302 298 302 303 306 308 309 311 315 313 315 315 320 321 325 322 321
318 318 319 319 319 320 320 320 321 321 321 321 321 323 316 305 304 314 322 320 319 319 313 310 306 304 299 300 300 298 300 302 306 306 308 312 313 312 313 318 322 324 324 321 321
318 318 318 318 319 319 319 320 320 320 320 320 321 320 311 299 313 315 313 313 314 315 313 312 308 309 303 301 299 301 300 301 303 304 306 308 312 310 314 318 318 321 321 322 321
318 318 318 318 318 318 319 319 319 319 319 320 321 315 308 303 313 315 313 311 313 312 310 314 314 308 306 300 304 302 297 299 300 302 304 311 307 309 317 317 316 318 319 319 321
318 318 318 317 317 317 317 317 318 319 319 320 320 313 304 312 315 313 313 311 313 313 314 315 315 309 305 305 301 296 297 292 297 300 304 307 299 311 317 315 315 315 317 317 318
318 317 317 316 316 317 318 318 318 319 318 319 313 309 300 316 308 312 312 307 310 312 313 311 310 305 304 297 294 293 290 290 293 300 301 304 300 310 315 314 313 315 316 317 317
317 316 316 316 317 317 317 317 317 315 312 313 310 304 305 303 309 310 312 310 306 308 307 305 304 299 298 295 286 289 290 291 291 297 299 300 300 307 313 314 312 314 316 317 317
316 316 315 317 317 317 314 312 307 305 307 302 302 302 304 309 311 308 310 308 308 305 298 302 297 292 295 297 296 294 291 291 294 297 296 297 298 301 308 313 311 312 313 316 318
315 315 316 316 316 316 314 306 305 306 300 304 304 304 307 307 302 305 310 302 301 296 300 298 293 297 298 297 295 294 291 291 295 297 296 296 296 299 304 310 312 312 312 313 317
315 315 315 315 315 314 308 306 311 310 301 301 302 302 303 305 301 302 306 303 299 296 296 293 295 298 296 295 293 293 291 291 291 295 297 295 293 296 300 305 311 312 314 314 313
314 314 315 313 310 311 306 309 311 310 297 296 298 302 304 304 299 305 306 302 299 295 296 295 298 296 295 293 294 289 295 294 292 291 288 295 286 293 297 299 303 310 311 312 312
314 314 314 312 310 307 308 310 311 307 291 296 297 305 304 299 300 302 306 302 297 295 296 292 294 294 293 293 295 292 296 294 293 291 290 291 288 291 296 294 298 303 311 311 312
313 314 312 311 313 309 311 310 307 298 289 294 297 296 298 299 299 301 301 303 301 296 297 295 298 296 295 296 296 297 294 294 293 292 285 289 288 289 293 295 297 301 306 312 312
313 313 311 310 307 312 310 306 300 291 294 292 293 295 295 295 295 296 296 295 292 289 290 294 293 296 297 293 296 296 292 286 283 285 283 288 287 290 296 298 299 299 300 308 313
311 309 309 309 311 311 308 299 290 290 291 295 294 294 292 294 294 294 294 292 295 293 290 287 287 292 295 293 291 292 291 285 277 279 282 288 284 291 297 298 298 299 301 301 301
308 312 311 310 310 310 303 295 294 292 293 293 294 291 291 293 291 293 292 292 293 294 287 286 286 294 294 296 294 291 289 291 286 288 283 287 290 295 297 296 298 297 299 300 302
309 308 308 309 309 307 298 294 293 294 295 294 289 291 288 291 290 291 290 294 293 294 294 290 284 291 293 295 295 292 293 286 288 279 278 284 286 288 293 294 296 297 299 300 302
309 301 308 308 307 301 295 294 293 296 297 293 291 290 291 289 290 289 290 293 295 294 294 292 288 288 292 290 289 290 289 289 288 286 281 280 285 295 294 296 295 297 298 300 302
305 295 307 308 298 297 294 293 294 294 298 295 294 292 291 291 290 289 289 292 296 295 290 292 289 284 287 292 292 292 290 290 284 283 286 284 284 296 296 297 297 297 298 300 302
298 298 308 305 291 293 295 293 294 293 294 294 292 293 293 290 287 290 291 295 296 294 291 292 287 282 284 288 289 288 290 290 289 288 282 280 284 296 296 296 297 297 299 298 300
298 294 300 302 298 293 292 292 291 295 294 294 293 293 292 290 292 289 290 293 295 295 295 295 288 285 281 283 287 284 286 288 287 283 284 284 287 291 294 295 297 298 298 299 298
298 294 295 293 295 295 294 294 290 290 294 293 291 291 290 287 288 288 290 291 293 295 294 292 285 287 287 288 287 286 286 286 285 286 282 285 286 291 293 294 295 297 297 296 296
295 294 297 295 293 292 292 291 291 292 292 291 289 292 292 288 289 287 289 290 290 292 291 293 285 287 283 287 287 284 286 287 287 287 287 288 287 294 295 295 294 295 296 296 296
301 300 297 293 291 290 290 291 291 292 294 294 293 292 290 291 294 294 295 294 293 291 289 289 287 284 280 285 285 281 286 288 289 290 289 285 291 295 293 294 294 295 295 295 296
Wind_Speed
9 9 9 10 11 12 12 14 15 15 14 14 15 15 16 16 16 10 9 12 14 17 15 11 10 7 6 10 10 9 12 16 22 25 18 3 15 4 5 5 6 5 7 6 22
9 8 9 10 10 11 11 13 14 14 14 14 15 16 15 12 9 6 6 14 15 14 11 10 9 7 9 7 7 12 12 19 19 22 10 5 15 12 5 8 5 5 6 23 21
9 9 9 9 11 11 12 13 14 15 15 15 16 16 16 10 9 9 11 14 13 13 9 9 9 8 10 7 11 12 18 16 13 7 9 8 20 14 3 10 5 6 13 16 17
10 10 10 10 11 11 13 13 14 15 15 16 17 17 18 10 6 11 11 13 11 10 9 8 7 5 6 7 9 10 14 20 14 5 11 12 15 13 15 5 7 2 14 17 16
10 10 11 11 11 12 13 14 15 15 14 15 16 15 10 3 9 9 7 8 8 9 7 8 10 6 8 3 6 14 16 14 13 10 12 14 14 13 15 10 9 8 13 16 14
10 10 10 13 13 13 13 14 15 14 14 15 14 17 7 8 8 10 9 9 7 9 9 7 7 10 8 7 9 5 11 13 16 9 7 14 13 10 13 11 10 8 8 12 14
10 12 12 12 12 14 14 14 15 14 13 14 10 6 8 8 9 9 9 10 7 7 8 9 9 9 10 7 3 11 10 14 15 13 10 7 10 9 17 13 14 7 6 8 10
11 12 13 13 13 13 14 15 15 14 12 9 7 5 5 2 8 9 10 9 6 6 6 8 7 11 8 9 6 9 9 10 14 15 10 5 12 16 22 18 15 11 6 8 6
11 11 12 13 13 13 14 16 15 12 7 7 6 4 4 4 11 11 9 11 13 6 3 5 5 7 7 10 6 6 6 6 8 8 11 7 6 11 15 10 12 13 11 10 9
10 11 11 12 13 14 17 13 4 8 5 5 5 6 2 10 12 10 9 7 6 12 6 4 5 8 6 9 7 9 4 2 3 3 9 10 11 1 10 21 21 13 8 10 10
9 10 12 13 13 14 10 4 4 4 2 4 5 4 9 14 4 5 6 10 7 7 8 3 8 10 12 11 9 6 5 4 4 3 6 12 12 9 5 11 11 12 11 7 4
10 10 10 12 14 12 6 4 4 4 5 4 5 6 7 5 7 9 11 7 8 9 13 1 10 10 8 7 7 8 4 6 3 5 6 5 12 14 9 9 13 16 16 16 9
11 11 12 12 10 3 6 4 3 3 6 1 2 4 4 4 6 9 13 9 7 10 9 6 8 10 6 7 12 6 10 9 9 10 7 7 12 13 11 10 10 11 14 14 14
11 11 12 15 1 2 3 3 2 3 4 4 1 2 3 4 3 3 5 4 4 8 8 3 7 8 6 6 10 4 9 10 9 9 2 4 4 10 12 13 14 15 16 12 12
13 12 11 9 3 2 4 3 2 4 2 4 1 2 5 4 8 3 1 3 8 9 5 5 8 9 8 7 9 6 9 8 9 9 6 7 5 7 4 8 12 13 15 16 12
11 11 11 3 1 3 4 3 3 2 4 2 2 4 6 2 2 7 3 4 2 4 4 6 2 3 6 10 6 11 9 8 6 5 4 6 3 7 0 3 6 9 14 16 15
10 6 6 3 3 3 2 3 2 2 2 3 3 5 7 5 4 6 5 6 7 8 8 7 1 1 4 11 4 11 10 3 2 1 3 2 5 9 9 8 4 4 3 8 15
7 4 1 2 3 3 2 3 3 1 2 2 3 7 3 6 1 7 6 5 5 7 9 6 4 5 7 4 6 7 6 4 6 7 11 3 5 2 4 5 5 4 4 3 2
5 2 2 2 3 2 3 2 3 1 2 3 5 4 1 1 4 6 4 4 3 6 7 7 5 2 2 3 5 4 2 3 6 8 6 3 6 9 4 3 5 3 3 3 4
4 2 1 3 4 3 3 4 2 2 1 1 4 1 6 7 6 6 4 3 0 1 2 3 7 2 1 3 3 4 6 3 2 6 8 8 11 4 4 3 4 7 6 2 4
4 4 3 2 2 4 3 2 2 1 2 3 3 5 5 5 4 6 5 2 1 1 2 4 2 5 4 4 7 3 3 3 4 4 6 9 5 6 1 4 3 3 8 7 2
3 4 2 2 2 1 3 1 2 2 4 4 4 5 4 2 7 5 5 3 1 1 5 3 6 6 14 2 2 5 6 7 4 5 7 7 13 5 7 8 5 8 8 9 8
3 2 1 3 4 3 2 2 3 3 4 4 4 6 1 4 5 6 5 1 3 3 3 2 3 7 4 3 3 4 4 9 9 7 14 11 8 2 2 4 9 12 14 9 10
4 3 2 2 1 3 3 4 3 2 4 4 3 3 4 6 9 6 5 2 4 5 2 1 6 11 13 16 15 17 18 13 10 10 13 16 24 20 18 18 18 14 13 15 13
2 0 1 1 4 5 1 2 3 4 4 4 4 10 6 6 5 8 7 7 8 4 4 5 9 12 17 17 18 21 22 20 17 20 16 22 20 23 20 19 19 15 13 11 11
3 3 3 2 2 3 3 3 6 6 4 4 8 8 7 9 10 15 17 15 11 6 5 5 10 10 16 18 15 16 20 22 20 21 19 23 25 20 11 10 12 12 13 13 9
1 1 2 3 3 3 3 4 3 2 6 6 6 8 12 13 15 15 14 15 15 15 16 11 7 9 15 14 12 16 11 14 9 9 12 14 15 8 9 10 9 8 8 9 8
Wind_Direction
335 335 336 344 349 350 356 351 338 334 337 339 340 338 333 324 302 273 15 340 327 320 321 292 287 274 267 246 247 248 247 244 238 234 246 164 176 186 16 109 140 133 351 80 144
343 340 339 339 342 344 348 342 331 327 328 333 334 331 329 321 283 342 19 339 333 337 316 324 313 327 271 247 213 237 234 241 245 231 275 45 256 143 177 143 136 133 89 120 145
347 345 341 338 333 337 339 332 326 323 328 330 330 327 326 307 262 11 8 337 330 317 316 302 294 291 280 249 230 227 251 241 263 349 305 291 277 155 178 179 66 178 135 145 151
351 347 343 335 331 331 328 325 322 321 327 327 328 326 322 277 8 6 346 326 320 306 302 303 275 275 274 250 232 246 257 261 305 336 313 279 238 128 113 22 357 197 154 157 168
351 349 339 330 329 325 322 319 316 318 323 323 324 323 319 335 3 350 325 331 309 326 329 330 310 330 298 311 270 235 255 252 222 287 300 298 256 149 128 91 32 87 156 162 175
348 343 339 329 327 319 314 311 309 313 318 318 321 314 295 19 342 337 330 313 328 321 323 317 325 325 288 286 268 351 258 263 259 278 262 291 268 92 128 94 72 98 146 155 183
346 339 334 326 321 314 310 308 306 308 314 311 312 307 268 1 329 337 312 307 300 311 304 323 323 308 321 284 322 275 252 226 244 239 268 260 238 219 164 129 104 85 129 156 191
342 338 332 323 317 312 308 305 301 299 303 295 293 287 296 360 321 316 340 325 302 286 274 298 303 289 268 312 261 261 243 222 222 214 244 239 233 194 167 158 125 136 161 164 196
338 336 327 322 317 311 305 301 295 288 279 276 256 295 14 296 342 336 341 321 313 276 270 289 281 277 268 250 223 212 270 242 146 207 247 227 245 53 147 145 149 124 165 150 161
338 331 325 321 320 317 312 297 311 277 225 239 252 246 337 340 329 318 321 313 313 311 225 253 236 272 8 7 22 344 338 217 209 122 218 245 254 63 175 180 188 159 141 151 171
337 331 328 322 325 323 326 260 241 195 279 11 335 295 310 335 296 311 340 315 302 258 355 11 34 17 354 350 334 329 295 345 44 354 259 231 245 242 225 202 190 187 173 138 167
334 330 328 326 323 313 293 37 43 347 305 204 279 278 285 336 297 354 338 350 331 358 344 320 33 2 334 310 304 320 317 21 130 4 288 202 250 240 211 233 204 182 184 199 160
334 331 333 329 315 312 54 58 335 283 262 178 287 297 329 314 315 325 348 326 340 343 0 358 6 328 329 351 340 55 8 356 341 313 250 285 256 241 234 220 218 218 208 184 192
334 331 336 328 289 349 54 1 308 284 268 50 87 96 278 278 258 328 355 324 327 335 341 8 351 344 341 23 349 355 5 329 318 318 343 335 310 181 220 211 218 204 206 199 189
330 330 332 2 343 324 22 327 307 245 33 12 52 42 320 316 322 108 16 259 334 336 305 37 342 349 0 355 332 351 324 308 312 306 307 189 277 273 112 249 240 222 197 200 183
326 320 323 270 234 38 345 312 246 248 282 44 307 334 332 228 314 308 303 198 237 298 250 315 345 296 331 316 290 310 293 274 279 300 264 41 321 287 211 3 308 250 210 201 196
330 317 317 299 6 2 327 244 293 269 115 354 329 341 337 313 312 347 344 28 21 346 353 338 339 343 310 318 193 339 338 326 341 269 329 104 290 267 302 347 292 302 271 211 199
329 300 5 4 346 330 248 241 259 49 280 75 297 298 281 358 205 319 304 358 87 351 305 333 318 2 5 7 319 331 338 355 318 342 317 208 261 53 97 335 322 283 281 246 252
303 197 241 47 327 278 262 265 278 263 10 316 282 284 218 184 294 323 314 331 27 12 355 341 331 122 5 333 324 6 348 345 292 290 269 251 256 259 223 84 37 35 310 233 207
290 265 146 349 308 251 255 260 285 360 116 261 282 305 314 354 308 328 320 89 106 352 335 28 292 88 31 269 189 279 339 266 205 299 325 300 302 252 217 112 33 34 34 24 185
266 269 80 326 272 238 241 258 309 255 262 271 300 284 267 304 293 310 298 134 218 187 291 320 247 315 245 193 333 212 212 224 302 271 304 308 305 30 290 253 304 351 353 335 260
285 256 68 266 254 250 246 302 360 227 215 240 278 272 268 310 284 282 271 289 160 260 304 44 311 288 292 61 308 277 290 295 288 291 255 274 281 311 342 286 265 286 308 320 293
263 307 129 266 242 224 169 258 256 229 242 212 234 236 252 261 271 246 273 65 215 248 310 107 237 296 306 158 170 242 275 263 292 294 262 274 263 155 294 245 243 262 275 300 283
277 260 157 225 336 283 277 249 241 214 252 253 274 237 224 255 231 275 261 251 204 231 72 218 255 259 282 294 316 297 287 266 254 272 267 261 280 289 296 302 302 292 294 298 300
227 324 358 226 195 243 272 303 241 270 227 224 238 241 232 274 250 240 271 271 208 174 207 241 259 272 276 287 292 285 280 276 254 250 262 278 283 287 304 308 301 303 302 297 293
257 238 181 287 221 227 204 240 263 271 253 218 240 292 256 251 261 292 302 287 270 172 231 220 262 286 284 288 284 291 280 271 266 261 257 262 272 285 301 300 307 298 296 298 288
151 165 279 125 196 208 234 251 336 345 236 283 277 294 275 274 284 292 293 282 270 268 253 232 252 290 275 287 299 286 269 265 246 236 234 266 274 351 297 314 310 310 308 298 296